User: anonymous
Location: Clatteringshaws Loch
(55.0508°N, 4.2860°W)
Time: 08:30:24
(UTC+01:00)
Language:

Cosmos 2221 Rocket - Orbit

View from above orbital plane
View from above orbital plane
View from above satellite
View from above satellite

Ground track
Ground track

The orbit data is extracted from the following two-line orbital elements,

1 22237U 92080B   14243.41613236  .00000198  00000-0  24326-4 0  4168
2 22237 082.5155 347.0706 0018422 304.0491 123.2530 14.77889476172646
Epoch (UTC): 31 August 2014 09:59:13
Eccentricity: 0.0018422
inclination: 82.5155°
perigee height: 623 km
apogee height: 649 km
right ascension of ascending node: 347.0706°
argument of perigee: 304.0491°
revolutions per day: 14.77889476
mean anomaly at epoch: 123.2530°
orbit number at epoch: 17264

The dashed part of the orbit path shows where the satellite is in the earth's shadow,  

DLR